AMC-5 (GE-5)

导读 | 星芒AI

AMC-5(曾用名GE-5)是由GE Americom运营的通信卫星,于2003年11月由阿丽亚娜火箭发射。它位于西经95度的轨道位置,主要提供北美地区的C波段和Ku波段广播和通信服务。AMC-5由波音卫星系统制造,设计寿命15年,搭载24个C波段和12个Ku波段转发器,广泛用于电视广播、企业通信和政府应用。该卫星在2021年退役后,其轨道位置由AMC-12接替。

基本信息
目录编号:
25516
目录名称:
AMC-5 (GE-5)
国际标识:
1998-063B
轨道中心:
EARTH
卫星名称:
AMC-5 (GE-5)
卫星全名:
--
卫星状态:
在轨 (已飞行9866 天)
发射日期:
1998-10-28 UTC
国别 :
(SES)
星等 :
--
轨道信息
数据来源 国际轨道数据 AOE轨道数据
星历时间 2025-10-31T23:22:28+0800
12小时前
查看轨道信息
2025-10-30T22:00:00+0800
1天前
查看轨道信息
半长轴 42428.982km 42429.124km
偏心率 0.0003065 0.0002984
轨道倾角 10.998° 10.995°
近地点辐角 159.921° 169.465°
升交点赤经 42.090° 42.097°
平近点角 214.595° 186.949°
近地点 36037.842km 36038.328km
远地点 36063.852km 36063.65km
周期 1449.618分钟 1449.626分钟
每日圈数 0.993365 0.99336
详细信息
使用方式:
暂无
2D轨道图
3D轨道图
轨道高度分析图
轨道倾角分析图
轨道综合分析图
查看轨道综合分析图